Location: Unspecified
(0.0000°N, 0.0000°E)
Time: 21:59:53
(UTC+01:00)

BREEZE-M DEB (TANK) - Visible Passes

Search period start: 19 February 2017 00:00
Search period end: 01 March 2017 00:00
Orbit: 322 x 16336 km, 49.5° (Epoch: 18 February)

Date Brightness Start Highest point End Pass type
(mag) Time Alt. Az. Time Alt. Az. Time Alt. Az.
19 Feb 8.4 03:53:02 53° NW 04:40:12 68° W 06:51:30 10° SSE visible
19 Feb 8.0 22:49:32 10° N 00:08:28 28° E 01:51:42 10° SE visible
20 Feb 8.8 04:34:52 42° WNW 05:23:50 53° W 07:33:19 10° SSE visible
20 Feb 8.0 23:27:54 10° N 00:46:21 41° E 02:45:33 10° SE visible
21 Feb 8.9 05:16:42 31° WNW 06:08:04 39° W 08:14:31 10° S visible
22 Feb 8.0 00:07:41 10° NNW 01:24:51 56° E 03:33:57 10° SE visible
22 Feb 8.7 05:58:32 19° WNW 06:53:13 26° WSW 08:54:41 10° S visible
23 Feb 8.1 00:48:15 10° NNW 02:04:43 71° E 04:19:39 10° SSE visible
23 Feb 8.4 06:47:26 10° W 07:40:45 14° WSW 09:30:36 10° SSW visible
24 Feb 8.2 01:29:27 10° NNW 02:46:13 87° E 05:03:48 10° SSE visible
25 Feb 8.3 02:11:25 10° NW 03:29:10 78° W 05:46:55 10° SSE visible
25 Feb 7.9 21:50:24 10° NNE 22:58:37 20° E 00:29:09 10° ESE visible
26 Feb 8.4 02:54:25 10° NW 04:13:08 63° W 06:29:19 10° SSE visible
26 Feb 7.9 22:26:14 10° N 23:36:32 32° E 01:31:58 10° SE visible
27 Feb 8.6 04:30:29 45° W 04:57:49 48° WSW 07:11:09 10° SSE visible
27 Feb 8.0 23:05:04 10° N 00:15:38 46° E 02:23:53 10° SE visible
28 Feb 8.9 05:11:57 32° W 05:43:13 35° WSW 07:52:24 10° S visible
